| time (UTC) | temp C | wind direction | speed KPH | gust KPH | rain 1hr cm | rain 24hr cm | rain mn cm | humidity % | barometer mb |
| 20260510164642 | 23 | 338 | 3.2 | 8.0 | 0.00 | 0.03 | 0.00 | 78 | 1017.5 |
| 20260510164140 | 23 | 53 | 1.6 | 8.0 | 0.00 | 0.03 | 0.00 | 78 | 1017.6 |
| 20260510163645 | 22 | 39 | 4.8 | 12.9 | 0.00 | 0.08 | 0.00 | 80 | 1017.7 |
| 20260510163640 | 23 | 297 | 3.2 | 9.7 | 0.00 | 0.05 | 0.00 | 79 | 1017.6 |
| 20260510163140 | 22 | 54 | 4.8 | 9.7 | 0.00 | 0.05 | 0.00 | 80 | 1017.6 |
| 20260510162140 | 22 | 12 | 3.2 | 12.9 | 0.00 | 0.08 | 0.00 | 82 | 1017.7 |
| 20260510161640 | 22 | 340 | 1.6 | 4.8 | 0.00 | 0.08 | 0.00 | 82 | 1017.8 |
| 20260510161140 | 22 | 347 | 1.6 | 6.4 | 0.00 | 0.10 | 0.00 | 83 | 1017.8 |
| 20260510160638 | 22 | 349 | 1.6 | 6.4 | 0.00 | 0.10 | 0.00 | 82 | 1017.8 |
| 20260510160138 | 22 | 266 | 1.6 | 6.4 | 0.00 | 0.13 | 0.00 | 84 | 1017.8 |
| 20260510155638 | 21 | 342 | 1.6 | 6.4 | 0.00 | 0.15 | 0.00 | 84 | 1017.7 |
| 20260510155138 | 21 | 344 | 3.2 | 8.0 | 0.00 | 0.15 | 0.00 | 83 | 1017.7 |
| 20260510154638 | 21 | 267 | 3.2 | 8.0 | 0.00 | 0.20 | 0.00 | 84 | 1017.6 |
| 20260510154138 | 21 | 340 | 3.2 | 8.0 | 0.00 | 0.23 | 0.00 | 86 | 1017.6 |
| 20260510153638 | 21 | 342 | 4.8 | 9.7 | 0.00 | 0.25 | 0.00 | 86 | 1017.7 |
| 20260510153138 | 21 | 339 | 3.2 | 9.7 | 0.00 | 0.30 | 0.00 | 86 | 1017.6 |
| 20260510152638 | 21 | 274 | 1.6 | 6.4 | 0.00 | 0.36 | 0.00 | 87 | 1017.6 |
| 20260510152136 | 21 | 268 | 1.6 | 6.4 | 0.00 | 0.38 | 0.00 | 88 | 1017.5 |
| 20260510151636 | 21 | 276 | 1.6 | 6.4 | 0.00 | 0.41 | 0.00 | 88 | 1017.4 |
| 20260510151136 | 21 | 315 | 3.2 | 6.4 | 0.00 | 0.43 | 0.00 | 89 | 1017.4 |
| 20260510150640 | 20 | 278 | 3.2 | 6.4 | 0.00 | 0.46 | 0.00 | 90 | 1017.4 |
| 20260510150636 | 20 | 46 | 1.6 | 6.4 | 0.00 | 0.48 | 0.00 | 90 | 1017.4 |
| 20260510145636 | 20 | 335 | 3.2 | 6.4 | 0.00 | 0.51 | 0.00 | 92 | 1017.3 |
| 20260510145136 | 20 | 342 | 3.2 | 8.0 | 0.00 | 0.53 | 0.00 | 92 | 1017.4 |
| 20260510144636 | 20 | 352 | 1.6 | 8.0 | 0.00 | 0.56 | 0.00 | 92 | 1017.6 |
| 20260510144136 | 20 | 3 | 1.6 | 6.4 | 0.00 | 0.58 | 0.00 | 93 | 1017.6 |
| 20260510143635 | 20 | 320 | 1.6 | 4.8 | 0.00 | 0.58 | 0.00 | 92 | 1017.6 |
| 20260510143134 | 20 | 339 | 1.6 | 4.8 | 0.00 | 0.58 | 0.00 | 93 | 1017.6 |
| 20260510142634 | 20 | 304 | 0.0 | 4.8 | 0.00 | 0.58 | 0.00 | 93 | 1017.5 |
| 20260510142134 | 20 | 304 | 0.0 | 4.8 | 0.00 | 0.58 | 0.00 | 93 | 1017.4 |
| 20260510141634 | 20 | 304 | 0.0 | 3.2 | 0.00 | 0.58 | 0.00 | 93 | 1017.6 |
| 20260510141136 | 20 | 317 | 0.0 | 3.2 | 0.00 | 0.58 | 0.00 | 93 | 1017.7 |
| 20260510141131 | 19 | 333 | 0.0 | 1.6 | 0.00 | 0.58 | 0.00 | 94 | 1017.5 |
| 20260510140734 | 20 | 333 | 0.0 | 1.6 | 0.00 | 0.58 | 0.00 | 94 | 1017.5 |
| 20260510135630 | 19 | 332 | 0.0 | 0.0 | 0.00 | 0.58 | 0.00 | 94 | 1017.5 |
| 20260510135130 | 19 | 333 | 0.0 | 0.0 | 0.00 | 0.58 | 0.00 | 94 | 1017.4 |
| 20260510134629 | 19 | 332 | 0.0 | 0.0 | 0.00 | 0.58 | 0.00 | 94 | 1017.3 |
| 20260510134128 | 19 | 332 | 0.0 | 1.6 | 0.00 | 0.58 | 0.00 | 94 | 1017.2 |
| 20260510133628 | 19 | 332 | 0.0 | 1.6 | 0.00 | 0.58 | 0.00 | 94 | 1017.2 |
| 20260510133127 | 19 | 333 | 0.0 | 1.6 | 0.00 | 0.58 | 0.00 | 94 | 1017.2 |
| 20260510132628 | 19 | 333 | 0.0 | 0.0 | 0.00 | 0.58 | 0.00 | 94 | 1017.1 |
| 20260510132132 | 18 | 333 | 0.0 | 3.2 | 0.00 | 0.58 | 0.00 | 94 | 1017.1 |
| 20260510132128 | 18 | 333 | 0.0 | 1.6 | 0.00 | 0.58 | 0.00 | 94 | 1017.0 |
| 20260510131625 | 18 | 333 | 0.0 | 1.6 | 0.00 | 0.58 | 0.00 | 95 | 1017.1 |
| 20260510130624 | 18 | 333 | 0.0 | 3.2 | 0.00 | 0.61 | 0.00 | 95 | 1017.1 |
| 20260510130125 | 18 | 333 | 1.6 | 3.2 | 0.00 | 0.79 | 0.00 | 94 | 1017.0 |
| 20260510130121 | 18 | 333 | 1.6 | 3.2 | 0.00 | 0.79 | 0.00 | 95 | 1017.1 |
| 20260510125119 | 18 | 330 | 0.0 | 3.2 | 0.00 | 0.81 | 0.00 | 94 | 1016.9 |
| 20260510124620 | 18 | 333 | 0.0 | 3.2 | 0.00 | 0.81 | 0.00 | 94 | 1016.8 |
| 20260510124120 | 18 | 333 | 1.6 | 3.2 | 0.00 | 0.81 | 0.00 | 95 | 1016.8 |
| 20260510123620 | 18 | 338 | 1.6 | 3.2 | 0.00 | 0.81 | 0.00 | 94 | 1016.8 |
| 20260510123123 | 18 | 317 | 0.0 | 0.0 | 0.00 | 0.81 | 0.00 | 95 | 1016.5 |
| 20260510123119 | 18 | 323 | 0.0 | 3.2 | 0.00 | 0.81 | 0.00 | 95 | 1016.7 |
| 20260510122118 | 18 | 345 | 0.0 | 0.0 | 0.00 | 0.81 | 0.00 | 95 | 1016.6 |
| 20260510121609 | 18 | 345 | 0.0 | 0.0 | 0.00 | 0.81 | 0.00 | 95 | 1016.6 |
| 20260510121110 | 17 | 345 | 0.0 | 0.0 | 0.00 | 0.81 | 0.00 | 95 | 1016.5 |
| 20260510120610 | 17 | 345 | 0.0 | 0.0 | 0.00 | 0.81 | 0.00 | 95 | 1016.4 |
| 20260510120109 | 17 | 345 | 0.0 | 0.0 | 0.00 | 0.81 | 0.00 | 95 | 1016.4 |
| 20260510115610 | 17 | 345 | 0.0 | 0.0 | 0.00 | 0.81 | 0.00 | 95 | 1016.3 |
| 20260510115108 | 17 | 345 | 0.0 | 0.0 | 0.00 | 0.81 | 0.00 | 95 | 1016.2 |
| 20260510114607 | 17 | 345 | 0.0 | 0.0 | 0.00 | 0.81 | 0.00 | 95 | 1016.2 |
| 20260510114112 | 17 | 345 | 0.0 | 0.0 | 0.00 | 0.81 | 0.00 | 95 | 1015.9 |
| 20260510114108 | 17 | 345 | 0.0 | 0.0 | 0.00 | 0.81 | 0.00 | 95 | 1016.1 |
| 20260510113109 | 17 | 345 | 0.0 | 0.0 | 0.00 | 0.81 | 0.00 | 94 | 1015.7 |
| 20260510112608 | 17 | 345 | 0.0 | 0.0 | 0.00 | 0.81 | 0.00 | 94 | 1015.6 |
| 20260510112111 | 17 | 345 | 0.0 | 0.0 | 0.00 | 0.81 | 0.00 | 94 | 1015.4 |
| 20260510112107 | 17 | 345 | 0.0 | 0.0 | 0.00 | 0.81 | 0.00 | 94 | 1015.5 |
| 20260510111108 | 17 | 345 | 0.0 | 0.0 | 0.00 | 0.81 | 0.00 | 95 | 1015.2 |
| 20260510110605 | 17 | 345 | 0.0 | 0.0 | 0.00 | 0.81 | 0.00 | 95 | 1015.1 |
| 20260510110106 | 17 | 345 | 0.0 | 0.0 | 0.00 | 0.81 | 0.00 | 95 | 1015.1 |
| 20260510105606 | 17 | 345 | 0.0 | 0.0 | 0.00 | 0.81 | 0.00 | 95 | 1015.0 |
| 20260510105109 | 17 | 345 | 0.0 | 0.0 | 0.00 | 0.81 | 0.00 | 95 | 1015.0 |
| 20260510105105 | 17 | 345 | 0.0 | 0.0 | 0.00 | 0.81 | 0.00 | 95 | 1015.0 |
| 20260510104104 | 17 | 345 | 0.0 | 0.0 | 0.00 | 0.81 | 0.00 | 95 | 1014.9 |
| 20260510103601 | 17 | 344 | 0.0 | 0.0 | 0.00 | 0.81 | 0.00 | 95 | 1014.7 |
| 20260510103101 | 17 | 345 | 0.0 | 0.0 | 0.00 | 0.81 | 0.00 | 95 | 1014.8 |
| 20260510102606 | 17 | 11 | 0.0 | 0.0 | 0.00 | 0.81 | 0.00 | 94 | 1014.8 |
| 20260510102602 | 17 | 343 | 0.0 | 0.0 | 0.00 | 0.81 | 0.00 | 95 | 1014.8 |
| 20260510101601 | 17 | 11 | 0.0 | 0.0 | 0.00 | 0.81 | 0.00 | 94 | 1014.7 |
| 20260510101102 | 17 | 11 | 0.0 | 0.0 | 0.00 | 0.81 | 0.00 | 94 | 1014.6 |
| 20260510100557 | 17 | 11 | 0.0 | 0.0 | 0.00 | 0.81 | 0.00 | 94 | 1014.6 |
| 20260510100058 | 17 | 11 | 0.0 | 0.0 | 0.00 | 0.81 | 0.00 | 94 | 1014.5 |
| 20260510095600 | 17 | 11 | 0.0 | 0.0 | 0.00 | 0.81 | 0.00 | 94 | 1014.3 |
| 20260510095555 | 17 | 11 | 0.0 | 0.0 | 0.00 | 0.81 | 0.00 | 94 | 1014.5 |
| 20260510094556 | 17 | 11 | 0.0 | 0.0 | 0.00 | 0.81 | 0.00 | 94 | 1014.4 |
| 20260510094054 | 17 | 11 | 0.0 | 0.0 | 0.00 | 0.81 | 0.00 | 94 | 1014.3 |
| 20260510093556 | 17 | 11 | 0.0 | 0.0 | 0.00 | 0.81 | 0.00 | 94 | 1014.4 |
| 20260510093054 | 17 | 11 | 0.0 | 0.0 | 0.00 | 0.81 | 0.00 | 94 | 1014.2 |
| 20260510092557 | 17 | 11 | 0.0 | 0.0 | 0.00 | 0.81 | 0.00 | 94 | 1014.0 |
| 20260510092553 | 17 | 11 | 0.0 | 0.0 | 0.00 | 0.81 | 0.00 | 94 | 1014.1 |
| 20260510092158 | 17 | 11 | 0.0 | 0.0 | 0.00 | 0.81 | 0.00 | 94 | 1014.1 |
| 20260510091053 | 17 | 355 | 0.0 | 0.0 | 0.00 | 0.81 | 0.00 | 94 | 1014.0 |
| 20260510090554 | 17 | 355 | 0.0 | 0.0 | 0.00 | 0.81 | 0.00 | 94 | 1014.0 |
| 20260510090051 | 17 | 355 | 0.0 | 1.6 | 0.00 | 0.81 | 0.00 | 94 | 1014.0 |
| 20260510085551 | 17 | 355 | 0.0 | 1.6 | 0.00 | 0.81 | 0.00 | 94 | 1013.9 |
| 20260510085051 | 17 | 355 | 0.0 | 1.6 | 0.00 | 0.81 | 0.00 | 94 | 1013.9 |
| 20260510084549 | 17 | 355 | 0.0 | 1.6 | 0.00 | 0.81 | 0.00 | 94 | 1013.9 |
| 20260510084049 | 17 | 355 | 0.0 | 1.6 | 0.00 | 0.81 | 0.00 | 94 | 1013.7 |
| 20260510083549 | 17 | 355 | 0.0 | 1.6 | 0.00 | 0.81 | 0.00 | 94 | 1013.7 |
| 20260510083047 | 17 | 355 | 0.0 | 1.6 | 0.00 | 0.81 | 0.00 | 94 | 1013.7 |
| 20260510082547 | 17 | 355 | 0.0 | 1.6 | 0.00 | 0.81 | 0.00 | 94 | 1013.6 |
| 20260510082047 | 17 | 355 | 0.0 | 0.0 | 0.00 | 0.81 | 0.00 | 94 | 1013.7 |
| 20260510081547 | 17 | 355 | 0.0 | 0.0 | 0.00 | 0.81 | 0.00 | 94 | 1013.7 |
| 20260510081047 | 17 | 355 | 0.0 | 1.6 | 0.00 | 0.81 | 0.00 | 94 | 1013.7 |
| 20260510080547 | 17 | 355 | 0.0 | 1.6 | 0.00 | 0.81 | 0.00 | 94 | 1013.6 |
| 20260510080046 | 17 | 356 | 0.0 | 1.6 | 0.00 | 0.81 | 0.00 | 94 | 1013.5 |
| 20260510075545 | 17 | 356 | 0.0 | 3.2 | 0.00 | 0.81 | 0.00 | 94 | 1013.6 |
| 20260510075045 | 17 | 347 | 0.0 | 3.2 | 0.00 | 0.81 | 0.00 | 94 | 1013.7 |
| 20260510074545 | 17 | 205 | 0.0 | 1.6 | 0.00 | 0.81 | 0.00 | 94 | 1013.8 |
| 20260510074049 | 17 | 238 | 0.0 | 0.0 | 0.00 | 0.84 | 0.00 | 94 | 1013.6 |
| 20260510074045 | 17 | 205 | 0.0 | 1.6 | 0.00 | 0.84 | 0.00 | 94 | 1013.6 |
| 20260510073045 | 17 | 238 | 0.0 | 1.6 | 0.00 | 0.84 | 0.00 | 94 | 1013.6 |
| 20260510072549 | 17 | 319 | 0.0 | 0.0 | 0.00 | 0.84 | 0.00 | 94 | 1013.3 |
| 20260510072545 | 17 | 238 | 0.0 | 1.6 | 0.00 | 0.84 | 0.00 | 94 | 1013.5 |
| 20260510072044 | 17 | 238 | 0.0 | 1.6 | 0.00 | 0.84 | 0.00 | 94 | 1013.3 |
| 20260510071043 | 17 | 319 | 0.0 | 0.0 | 0.00 | 0.84 | 0.00 | 94 | 1013.2 |
| 20260510070543 | 17 | 318 | 0.0 | 1.6 | 0.00 | 0.84 | 0.00 | 94 | 1013.0 |
| 20260510070047 | 17 | 318 | 0.0 | 0.0 | 0.00 | 0.84 | 0.00 | 94 | 1012.8 |
| 20260510070043 | 17 | 319 | 0.0 | 1.6 | 0.00 | 0.84 | 0.00 | 94 | 1012.8 |
| 20260510065648 | 17 | 318 | 0.0 | 0.0 | 0.00 | 0.84 | 0.00 | 93 | 1012.8 |
| 20260510065043 | 17 | 318 | 0.0 | 0.0 | 0.00 | 0.84 | 0.00 | 94 | 1012.7 |
| 20260510064043 | 17 | 318 | 0.0 | 0.0 | 0.00 | 0.84 | 0.00 | 94 | 1012.8 |
| 20260510063543 | 17 | 318 | 0.0 | 1.6 | 0.00 | 0.84 | 0.00 | 94 | 1012.8 |
| 20260510063042 | 17 | 318 | 0.0 | 1.6 | 0.00 | 0.84 | 0.00 | 94 | 1012.8 |
| 20260510062545 | 17 | 318 | 1.6 | 3.2 | 0.00 | 0.84 | 0.00 | 94 | 1013.1 |
| 20260510062541 | 17 | 318 | 0.0 | 1.6 | 0.00 | 0.84 | 0.00 | 94 | 1012.8 |
| 20260510062041 | 17 | 318 | 0.0 | 3.2 | 0.00 | 0.84 | 0.00 | 94 | 1012.8 |
| 20260510061041 | 17 | 319 | 1.6 | 3.2 | 0.00 | 0.84 | 0.00 | 94 | 1013.0 |
| 20260510060541 | 17 | 342 | 1.6 | 4.8 | 0.00 | 0.84 | 0.00 | 94 | 1013.1 |
| 20260510060041 | 17 | 345 | 1.6 | 6.4 | 0.00 | 0.84 | 0.00 | 94 | 1013.1 |
| 20260510055541 | 17 | 349 | 1.6 | 6.4 | 0.00 | 0.84 | 0.00 | 94 | 1013.1 |
| 20260510055046 | 18 | 17 | 0.0 | 3.2 | 0.00 | 0.84 | 0.00 | 94 | 1013.1 |
| 20260510055042 | 17 | 348 | 0.0 | 3.2 | 0.00 | 0.84 | 0.00 | 94 | 1013.1 |
| 20260510054645 | 18 | 309 | 0.0 | 0.0 | 0.00 | 0.84 | 0.00 | 94 | 1013.2 |
| 20260510053544 | 18 | 309 | 0.0 | 0.0 | 0.00 | 0.84 | 0.00 | 93 | 1013.5 |
| 20260510053539 | 18 | 309 | 0.0 | 0.0 | 0.00 | 0.84 | 0.00 | 94 | 1013.3 |
| 20260510053039 | 18 | 309 | 0.0 | 0.0 | 0.00 | 0.84 | 0.00 | 94 | 1013.4 |
| 20260510052039 | 18 | 309 | 0.0 | 0.0 | 0.00 | 0.84 | 0.00 | 94 | 1013.8 |
| 20260510051537 | 18 | 309 | 0.0 | 0.0 | 0.00 | 0.84 | 0.00 | 94 | 1013.9 |
| 20260510051037 | 18 | 233 | 0.0 | 0.0 | 0.00 | 0.84 | 0.00 | 94 | 1013.9 |
| 20260510050537 | 18 | 232 | 0.0 | 0.0 | 0.00 | 0.84 | 0.00 | 94 | 1013.9 |
| 20260510050038 | 18 | 232 | 0.0 | 0.0 | 0.00 | 0.84 | 0.00 | 93 | 1013.8 |
| 20260510045537 | 18 | 232 | 0.0 | 0.0 | 0.00 | 0.84 | 0.84 | 93 | 1013.8 |
| 20260510045041 | 18 | 232 | 0.0 | 0.0 | 0.00 | 0.84 | 0.84 | 93 | 1013.9 |
| 20260510045037 | 18 | 232 | 0.0 | 0.0 | 0.00 | 0.84 | 0.84 | 93 | 1013.5 |
| 20260510044037 | 18 | 145 | 0.0 | 3.2 | 0.00 | 0.84 | 0.84 | 94 | 1013.6 |
| 20260510043537 | 18 | 145 | 1.6 | 3.2 | 0.00 | 0.84 | 0.84 | 94 | 1014.0 |
| 20260510043038 | 18 | 149 | 0.0 | 3.2 | 0.00 | 0.84 | 0.84 | 94 | 1014.0 |
| 20260510042537 | 18 | 249 | 0.0 | 0.0 | 0.00 | 0.84 | 0.84 | 93 | 1014.4 |
| 20260510042037 | 18 | 249 | 0.0 | 0.0 | 0.00 | 0.84 | 0.84 | 93 | 1014.4 |
| 20260510041536 | 18 | 249 | 0.0 | 1.6 | 0.00 | 0.84 | 0.84 | 93 | 1014.5 |
| 20260510041039 | 18 | 250 | 0.0 | 3.2 | 0.00 | 0.84 | 0.84 | 93 | 1014.4 |
| 20260510041035 | 18 | 249 | 0.0 | 1.6 | 0.00 | 0.84 | 0.84 | 93 | 1014.5 |
| 20260510040035 | 18 | 216 | 1.6 | 3.2 | 0.00 | 0.84 | 0.84 | 94 | 1014.2 |
| 20260510035535 | 18 | 174 | 0.0 | 3.2 | 0.00 | 0.84 | 0.84 | 94 | 1014.1 |
| 20260510035033 | 18 | 154 | 0.0 | 0.0 | 0.00 | 0.84 | 0.84 | 94 | 1014.3 |
| 20260510034534 | 18 | 209 | 0.0 | 0.0 | 0.00 | 0.84 | 0.84 | 94 | 1014.4 |
| 20260510034529 | 18 | 209 | 0.0 | 0.0 | 0.00 | 0.84 | 0.84 | 94 | 1014.5 |
| 20260510034133 | 18 | 209 | 0.0 | 0.0 | 0.00 | 0.84 | 0.84 | 94 | 1014.5 |
| 20260510033027 | 18 | 198 | 0.0 | 0.0 | 0.00 | 0.84 | 0.84 | 93 | 1014.4 |
| 20260510032527 | 18 | 198 | 0.0 | 0.0 | 0.00 | 0.84 | 0.84 | 93 | 1014.1 |
| 20260510032025 | 18 | 198 | 0.0 | 0.0 | 0.00 | 0.84 | 0.84 | 94 | 1014.0 |
| 20260510031525 | 18 | 193 | 0.0 | 0.0 | 0.00 | 0.84 | 0.84 | 93 | 1014.2 |
| 20260510031029 | 18 | 252 | 0.0 | 1.6 | 0.00 | 0.84 | 0.84 | 93 | 1014.2 |
| 20260510031025 | 18 | 269 | 0.0 | 0.0 | 0.00 | 0.84 | 0.84 | 93 | 1014.3 |
| 20260510030023 | 18 | 159 | 0.0 | 1.6 | 0.00 | 0.84 | 0.84 | 94 | 1013.9 |
| 20260510025528 | 18 | 358 | 0.0 | 0.0 | 0.00 | 0.84 | 0.84 | 93 | 1014.0 |
| 20260510025524 | 18 | 358 | 0.0 | 0.0 | 0.00 | 0.84 | 0.84 | 93 | 1013.8 |
| 20260510024523 | 18 | 359 | 0.0 | 0.0 | 0.00 | 0.84 | 0.84 | 93 | 1013.7 |
| 20260510024023 | 18 | 359 | 0.0 | 3.2 | 0.00 | 0.84 | 0.84 | 93 | 1013.8 |
| 20260510023522 | 18 | 358 | 0.0 | 3.2 | 0.00 | 0.84 | 0.84 | 93 | 1013.9 |
| 20260510023021 | 18 | 330 | 1.6 | 3.2 | 0.00 | 0.84 | 0.84 | 93 | 1014.1 |
| 20260510022521 | 18 | 330 | 1.6 | 3.2 | 0.00 | 0.84 | 0.84 | 93 | 1014.2 |
| 20260510022021 | 18 | 318 | 0.0 | 3.2 | 0.00 | 0.84 | 0.84 | 93 | 1014.2 |
| 20260510021521 | 18 | 163 | 0.0 | 0.0 | 0.00 | 0.84 | 0.84 | 93 | 1014.1 |
| 20260510021021 | 18 | 163 | 0.0 | 0.0 | 0.00 | 0.84 | 0.84 | 93 | 1013.9 |
| 20260510020521 | 18 | 163 | 0.0 | 0.0 | 0.00 | 0.84 | 0.84 | 93 | 1013.8 |
| 20260510020021 | 18 | 163 | 0.0 | 0.0 | 0.00 | 0.84 | 0.84 | 93 | 1013.9 |
| 20260510015521 | 18 | 163 | 0.0 | 0.0 | 0.00 | 0.84 | 0.84 | 93 | 1013.8 |
| 20260510015021 | 18 | 163 | 0.0 | 0.0 | 0.00 | 0.84 | 0.84 | 93 | 1013.6 |
| 20260510014521 | 18 | 163 | 0.0 | 0.0 | 0.00 | 0.84 | 0.84 | 93 | 1013.5 |
| 20260510014019 | 18 | 163 | 0.0 | 0.0 | 0.00 | 0.84 | 0.84 | 93 | 1013.4 |
| 20260510013519 | 18 | 163 | 0.0 | 0.0 | 0.00 | 0.84 | 0.84 | 93 | 1013.3 |
| 20260510013019 | 18 | 163 | 0.0 | 0.0 | 0.00 | 0.84 | 0.84 | 93 | 1013.2 |
| 20260510012523 | 18 | 163 | 0.0 | 0.0 | 0.00 | 0.84 | 0.84 | 93 | 1013.2 |
| 20260510012519 | 18 | 163 | 0.0 | 0.0 | 0.00 | 0.84 | 0.84 | 93 | 1013.3 |
| 20260510012123 | 18 | 163 | 0.0 | 0.0 | 0.00 | 0.84 | 0.84 | 92 | 1013.4 |
| 20260510011519 | 18 | 163 | 0.0 | 0.0 | 0.00 | 0.84 | 0.84 | 92 | 1013.3 |
| 20260510010519 | 18 | 163 | 0.0 | 0.0 | 0.00 | 0.84 | 0.84 | 92 | 1013.5 |
| 20260510010023 | 19 | 163 | 0.0 | 0.0 | 0.00 | 0.84 | 0.84 | 92 | 1013.5 |
| 20260510010019 | 18 | 163 | 0.0 | 0.0 | 0.00 | 0.84 | 0.84 | 92 | 1013.5 |
| 20260510005621 | 18 | 163 | 0.0 | 0.0 | 0.00 | 0.84 | 0.84 | 92 | 1013.5 |
| 20260510004516 | 19 | 163 | 0.0 | 0.0 | 0.00 | 0.84 | 0.84 | 92 | 1013.5 |
| 20260510004017 | 19 | 163 | 0.0 | 0.0 | 0.00 | 0.84 | 0.84 | 92 | 1013.5 |
| 20260510003517 | 19 | 163 | 0.0 | 0.0 | 0.00 | 0.84 | 0.84 | 92 | 1013.2 |
| 20260510003014 | 19 | 118 | 0.0 | 0.0 | 0.00 | 0.84 | 0.84 | 91 | 1013.1 |
| 20260510002517 | 19 | 118 | 0.0 | 0.0 | 0.00 | 0.84 | 0.84 | 91 | 1013.1 |
| 20260510002513 | 19 | 118 | 0.0 | 0.0 | 0.00 | 0.84 | 0.84 | 91 | 1012.8 |
| 20260510001513 | 19 | 118 | 0.0 | 0.0 | 0.00 | 0.84 | 0.84 | 91 | 1012.7 |
| 20260510001011 | 19 | 119 | 0.0 | 0.0 | 0.00 | 0.84 | 0.84 | 91 | 1012.8 |
| 20260510000511 | 19 | 118 | 0.0 | 1.6 | 0.00 | 0.84 | 0.84 | 91 | 1012.8 |
| 20260510000008 | 19 | 118 | 0.0 | 3.2 | 0.00 | 0.84 | 0.84 | 90 | 1012.8 |
| 20260509235513 | 20 | 199 | 1.6 | 8.0 | 0.00 | 0.84 | 0.84 | 90 | 1012.9 |
| 20260509235509 | 20 | 118 | 1.6 | 4.8 | 0.00 | 0.84 | 0.84 | 90 | 1012.8 |
| 20260509234508 | 20 | 158 | 1.6 | 8.0 | 0.00 | 0.84 | 0.84 | 90 | 1012.6 |
| 20260509234009 | 20 | 217 | 0.0 | 0.0 | 0.00 | 0.84 | 0.84 | 90 | 1013.0 |
| 20260509233507 | 20 | 210 | 0.0 | 0.0 | 0.00 | 0.86 | 0.84 | 90 | 1012.9 |
| 20260509233006 | 20 | 195 | 0.0 | 3.2 | 0.00 | 0.86 | 0.84 | 90 | 1012.8 |
| 20260509232505 | 20 | 142 | 1.6 | 3.2 | 0.00 | 0.86 | 0.84 | 90 | 1012.7 |
| 20260509232005 | 20 | 134 | 3.2 | 4.8 | 0.00 | 0.86 | 0.84 | 90 | 1012.6 |
| 20260509231504 | 20 | 158 | 3.2 | 4.8 | 0.00 | 0.86 | 0.84 | 90 | 1012.6 |
| 20260509231005 | 20 | 166 | 1.6 | 4.8 | 0.00 | 0.86 | 0.84 | 90 | 1012.5 |
| 20260509230503 | 20 | 90 | 1.6 | 3.2 | 0.00 | 0.89 | 0.84 | 89 | 1012.6 |
| 20260509230003 | 20 | 209 | 1.6 | 3.2 | 0.00 | 0.89 | 0.84 | 90 | 1012.7 |
| 20260509225503 | 20 | 162 | 0.0 | 3.2 | 0.00 | 0.89 | 0.84 | 90 | 1012.6 |
| 20260509225001 | 20 | 228 | 0.0 | 1.6 | 0.00 | 0.89 | 0.84 | 90 | 1012.5 |
| 20260509224458 | 20 | 152 | 1.6 | 4.8 | 0.00 | 0.91 | 0.84 | 90 | 1012.6 |
| 20260509223958 | 20 | 150 | 1.6 | 4.8 | 0.00 | 0.91 | 0.84 | 90 | 1012.3 |
| 20260509223503 | 20 | 240 | 0.0 | 4.8 | 0.00 | 0.91 | 0.84 | 89 | 1012.5 |
| 20260509223459 | 20 | 169 | 0.0 | 3.2 | 0.00 | 0.91 | 0.84 | 90 | 1012.4 |
| 20260509222458 | 20 | 224 | 1.6 | 4.8 | 0.00 | 0.94 | 0.84 | 89 | 1012.4 |
| 20260509221959 | 20 | 147 | 0.0 | 3.2 | 0.00 | 0.97 | 0.84 | 89 | 1012.3 |
| 20260509221458 | 20 | 207 | 1.6 | 4.8 | 0.00 | 0.99 | 0.84 | 89 | 1012.3 |
| 20260509220958 | 20 | 222 | 1.6 | 6.4 | 0.00 | 1.02 | 0.84 | 89 | 1012.4 |
| 20260509220457 | 20 | 200 | 0.0 | 6.4 | 0.00 | 1.07 | 0.84 | 89 | 1012.5 |
| 20260509215957 | 20 | 211 | 0.0 | 3.2 | 0.00 | 1.09 | 0.84 | 89 | 1012.3 |
| 20260509215456 | 20 | 211 | 0.0 | 3.2 | 0.00 | 1.12 | 0.84 | 88 | 1012.4 |
| 20260509214957 | 20 | 321 | 0.0 | 0.0 | 0.00 | 1.14 | 0.84 | 89 | 1012.4 |
| 20260509214455 | 20 | 321 | 0.0 | 0.0 | 0.00 | 1.17 | 0.84 | 89 | 1012.4 |
| 20260509213952 | 20 | 321 | 0.0 | 0.0 | 0.00 | 1.19 | 0.84 | 89 | 1012.5 |
| 20260509213453 | 20 | 321 | 0.0 | 0.0 | 0.00 | 1.22 | 0.84 | 89 | 1012.4 |
| 20260509212955 | 19 | 321 | 0.0 | 6.4 | 0.00 | 1.27 | 0.84 | 89 | 1012.5 |
| 20260509212950 | 20 | 321 | 0.0 | 0.0 | 0.00 | 1.24 | 0.84 | 89 | 1012.4 |
| 20260509211951 | 20 | 246 | 0.0 | 6.4 | 0.00 | 1.32 | 0.84 | 89 | 1012.4 |
| 20260509211450 | 20 | 324 | 1.6 | 4.8 | 0.00 | 1.40 | 0.84 | 89 | 1012.2 |
| 20260509210951 | 20 | 323 | 1.6 | 4.8 | 0.00 | 1.45 | 0.84 | 89 | 1012.4 |
| 20260509210454 | 20 | 326 | 1.6 | 4.8 | 0.00 | 1.52 | 0.84 | 90 | 1012.3 |
| 20260509210448 | 20 | 338 | 1.6 | 4.8 | 0.00 | 1.47 | 0.84 | 89 | 1012.3 |
| 20260509205949 | 20 | 335 | 1.6 | 4.8 | 0.00 | 1.50 | 0.84 | 90 | 1012.2 |
| 20260509204948 | 20 | 312 | 0.0 | 4.8 | 0.00 | 1.57 | 0.84 | 91 | 1012.3 |
| 20260509204445 | 20 | 357 | 0.0 | 1.6 | 0.00 | 1.60 | 0.84 | 91 | 1012.3 |
| 20260509203942 | 20 | 356 | 1.6 | 6.4 | 0.00 | 1.63 | 0.84 | 91 | 1012.1 |
| 20260509203438 | 19 | 315 | 3.2 | 9.7 | 0.00 | 1.68 | 0.84 | 91 | 1012.1 |
| 20260509202939 | 19 | 352 | 1.6 | 9.7 | 0.00 | 1.70 | 0.84 | 91 | 1011.9 |
| 20260509202438 | 19 | 334 | 1.6 | 6.4 | 0.00 | 1.73 | 0.84 | 92 | 1011.8 |
| 20260509201944 | 19 | 315 | 1.6 | 6.4 | 0.00 | 1.75 | 0.84 | 92 | 1011.6 |
| 20260509201439 | 19 | 32 | 1.6 | 4.8 | 0.00 | 1.78 | 0.84 | 91 | 1011.5 |
| 20260509200941 | 19 | 11 | 3.2 | 8.0 | 0.00 | 1.78 | 0.84 | 92 | 1011.6 |
| 20260509200937 | 19 | 321 | 3.2 | 8.0 | 0.00 | 1.78 | 0.84 | 92 | 1011.6 |
| 20260509200541 | 19 | 328 | 3.2 | 8.0 | 0.00 | 1.80 | 0.84 | 92 | 1011.6 |
| 20260509195436 | 19 | 332 | 1.6 | 8.0 | 0.00 | 1.80 | 0.84 | 92 | 1011.5 |
| 20260509194937 | 19 | 325 | 0.0 | 3.2 | 0.00 | 1.80 | 0.84 | 92 | 1011.5 |
| 20260509194436 | 19 | 246 | 0.0 | 3.2 | 0.00 | 1.80 | 0.84 | 92 | 1011.3 |
| 20260509193936 | 19 | 269 | 0.0 | 3.2 | 0.00 | 1.80 | 0.84 | 92 | 1011.2 |
| 20260509193437 | 19 | 262 | 0.0 | 4.8 | 0.00 | 1.80 | 0.84 | 92 | 1011.1 |
| 20260509192936 | 19 | 146 | 0.0 | 4.8 | 0.00 | 1.80 | 0.84 | 92 | 1011.4 |
| 20260509192439 | 19 | 165 | 1.6 | 4.8 | 0.00 | 1.80 | 0.84 | 93 | 1011.5 |
| 20260509192435 | 19 | 202 | 1.6 | 4.8 | 0.00 | 1.80 | 0.84 | 92 | 1011.7 |
| 20260509191434 | 19 | 255 | 1.6 | 6.4 | 0.00 | 1.80 | 0.84 | 92 | 1011.7 |
| 20260509190932 | 19 | 44 | 1.6 | 6.4 | 0.00 | 1.83 | 0.84 | 93 | 1011.9 |
| 20260509190432 | 19 | 193 | 1.6 | 3.2 | 0.00 | 1.83 | 0.84 | 93 | 1011.8 |
| 20260509185932 | 19 | 326 | 1.6 | 3.2 | 0.00 | 1.83 | 0.84 | 93 | 1011.8 |
| 20260509185436 | 18 | 155 | 0.0 | 1.6 | 0.00 | 1.83 | 0.84 | 93 | 1011.4 |
| 20260509185432 | 18 | 155 | 1.6 | 3.2 | 0.00 | 1.83 | 0.84 | 92 | 1011.6 |
| 20260509185037 | 18 | 157 | 0.0 | 3.2 | 0.00 | 1.83 | 0.84 | 93 | 1011.6 |
| 20260509183932 | 18 | 147 | 0.0 | 3.2 | 0.00 | 1.85 | 0.84 | 92 | 1011.5 |
| 20260509183431 | 18 | 165 | 1.6 | 4.8 | 0.00 | 1.85 | 0.84 | 93 | 1011.6 |
| 20260509182930 | 18 | 165 | 1.6 | 4.8 | 0.00 | 1.88 | 0.84 | 93 | 1011.6 |
| 20260509182430 | 18 | 160 | 0.0 | 3.2 | 0.00 | 1.91 | 0.84 | 92 | 1011.6 |
| 20260509181935 | 18 | 41 | 3.2 | 6.4 | 0.03 | 2.03 | 0.84 | 92 | 1011.7 |
| 20260509181930 | 18 | 335 | 1.6 | 3.2 | 0.00 | 1.93 | 0.84 | 92 | 1011.9 |
| 20260509181430 | 18 | 32 | 1.6 | 6.4 | 0.00 | 1.96 | 0.84 | 92 | 1011.7 |
| 20260509180430 | 18 | 263 | 4.8 | 16.1 | 0.03 | 2.03 | 0.84 | 92 | 1011.8 |
| 20260509175930 | 18 | 353 | 8.0 | 17.7 | 0.03 | 2.06 | 0.84 | 92 | 1011.8 |
| 20260509175432 | 18 | 336 | 8.0 | 20.9 | 0.03 | 2.08 | 0.84 | 92 | 1011.4 |
| 20260509174934 | 18 | 145 | 11.3 | 19.3 | 0.03 | 2.11 | 0.84 | 92 | 1010.1 |
| 20260509174930 | 18 | 332 | 8.0 | 20.9 | 0.03 | 2.08 | 0.84 | 92 | 1011.6 |
| 20260509173928 | 18 | 134 | 12.9 | 20.9 | 0.05 | 2.11 | 0.84 | 92 | 1009.6 |
| 20260509173428 | 18 | 167 | 11.3 | 20.9 | 0.05 | 2.11 | 0.84 | 92 | 1010.0 |
| 20260509172928 | 18 | 144 | 9.7 | 19.3 | 0.05 | 2.11 | 0.84 | 93 | 1011.5 |
| 20260509172428 | 18 | 174 | 8.0 | 19.3 | 0.08 | 2.11 | 0.84 | 93 | 1012.1 |
| 20260509172033 | 18 | 179 | 12.9 | 33.8 | 0.08 | 2.11 | 0.84 | 93 | 1012.5 |
| 20260509171532 | 18 | 200 | 17.7 | 33.8 | 0.08 | 2.08 | 0.81 | 93 | 1012.2 |
| 20260509171032 | 18 | 139 | 17.7 | 30.6 | 0.08 | 2.08 | 0.81 | 93 | 1012.2 |
| 20260509165928 | 18 | 151 | 12.9 | 30.6 | 0.10 | 2.08 | 0.81 | 93 | 1012.2 |
| 20260509165428 | 18 | 158 | 11.3 | 20.9 | 0.13 | 2.08 | 0.81 | 93 | 1012.7 |
| 20260509164926 | 18 | 183 | 8.0 | 17.7 | 0.15 | 2.08 | 0.81 | 93 | 1012.8 |